TimeMST,TemperatureF,Dew PointF,Humidity,Sea Level PressureIn,VisibilityMPH,Wind Direction,Wind SpeedMPH,Gust SpeedMPH,PrecipitationIn,Events,Conditions,WindDirDegrees,DateUTC
12:19 AM,12.2,8.6,85,29.94,1.0,NW,32.2,42.6,0.00,Snow,Light Snow,320,2012-12-09 07:19:00
12:31 AM,12.2,8.6,85,29.95,0.8,NNW,34.5,47.2,0.00,Snow,Light Snow,330,2012-12-09 07:31:00
12:55 AM,12.0,8.1,84,30.04,0.5,NNW,38.0,46.0,0.00,Fog-Snow,Snow,330,2012-12-09 07:55:00
1:02 AM,12.2,8.6,85,29.96,0.5,NW,33.4,46.0,0.00,Fog-Snow,Snow,320,2012-12-09 08:02:00
1:55 AM,10.0,7.0,87,30.09,0.5,NNW,35.7,46.0,0.00,Fog-Snow,Light Snow,330,2012-12-09 08:55:00
2:51 AM,8.6,5.0,85,30.03,1.0,NNW,34.5,43.7,0.02,Snow,Light Snow,330,2012-12-09 09:51:00
2:55 AM,9.0,5.0,84,30.12,1.0,NNW,33.4,43.7,0.02,Snow,Light Snow,330,2012-12-09 09:55:00
3:25 AM,8.6,5.0,85,30.06,1.8,NNW,28.8,41.4,0.00,Snow,Light Snow,330,2012-12-09 10:25:00
3:55 AM,9.0,5.0,84,30.17,1.8,NNW,29.9,42.6,0.00,Snow,Light Snow,340,2012-12-09 10:55:00
4:31 AM,8.6,5.0,85,30.10,2.0,NNW,29.9,40.3,0.00,Snow,Light Snow,340,2012-12-09 11:31:00
4:55 AM,9.0,3.9,80,30.22,2.0,NNW,31.1,43.7,0.00,Snow,Light Snow,340,2012-12-09 11:55:00
5:55 AM,9.0,3.9,80,30.27,2.5,NNW,27.6,38.0,0.00,Snow,Light Snow,340,2012-12-09 12:55:00
6:44 AM,8.6,3.2,79,30.21,3.0,NNW,31.1,36.8,0.00,Snow,Light Snow,330,2012-12-09 13:44:00
6:55 AM,8.1,3.9,83,30.33,3.0,NNW,28.8,38.0,0.00,Snow,Light Snow,330,2012-12-09 13:55:00
7:22 AM,8.6,3.2,79,30.24,1.8,NNW,25.3,35.7,0.00,Snow,Light Snow,330,2012-12-09 14:22:00
7:50 AM,8.6,3.2,79,30.27,1.5,NNW,23.0,33.4,0.00,Snow,Light Snow,330,2012-12-09 14:50:00
7:55 AM,8.1,3.9,83,30.37,1.5,NW,24.2,34.5,0.00,Snow,Light Snow,320,2012-12-09 14:55:00
8:39 AM,8.6,3.2,79,30.30,2.5,NNW,21.9,32.2,0.00,Snow,Light Snow,330,2012-12-09 15:39:00
8:55 AM,8.1,3.0,80,30.42,2.0,NNW,26.5,32.2,0.00,Snow,Light Snow,330,2012-12-09 15:55:00
9:08 AM,8.6,3.2,79,30.32,3.0,NNW,21.9,32.2,0.00,Snow,Light Snow,330,2012-12-09 16:08:00
9:55 AM,8.1,1.9,76,30.45,10.0,NNW,23.0,33.4,0.00,,Overcast,330,2012-12-09 16:55:00
10:55 AM,8.1,1.9,76,30.45,10.0,NNW,20.7,29.9,N/A,,Overcast,330,2012-12-09 17:55:00
11:51 AM,9.0,1.9,73,30.46,10.0,NW,19.6,26.5,N/A,,Overcast,320,2012-12-09 18:51:00
11:59 AM,8.6,1.4,73,30.33,10.0,NW,19.6,-,N/A,,Overcast,320,2012-12-09 18:59:00
12:55 PM,10.9,3.0,70,30.43,10.0,NW,18.4,27.6,N/A,,Mostly Cloudy,320,2012-12-09 19:55:00
1:55 PM,10.9,3.0,70,30.44,10.0,NW,15.0,-,N/A,,Clear,320,2012-12-09 20:55:00
2:55 PM,12.0,3.0,67,30.44,10.0,NW,9.2,-,N/A,,Clear,320,2012-12-09 21:55:00
3:55 PM,9.0,1.9,73,30.44,10.0,WNW,6.9,-,N/A,,Clear,300,2012-12-09 22:55:00
4:55 PM,3.9,-0.0,84,30.43,10.0,WNW,6.9,-,N/A,,Clear,300,2012-12-09 23:55:00
5:55 PM,3.0,-0.9,84,30.43,10.0,WNW,8.1,-,N/A,,Clear,290,2012-12-10 00:55:00
6:55 PM,1.0,-2.9,83,30.40,10.0,West,5.8,-,N/A,,Clear,280,2012-12-10 01:55:00
7:55 PM,1.0,-2.9,83,30.36,10.0,West,5.8,-,N/A,,Clear,260,2012-12-10 02:55:00
8:55 PM,-0.9,-5.1,83,30.35,10.0,Calm,Calm,-,N/A,,Clear,0,2012-12-10 03:55:00
9:55 PM,-2.9,-6.0,87,30.30,10.0,Calm,Calm,-,N/A,,Clear,0,2012-12-10 04:55:00
10:55 PM,-0.9,-6.0,79,30.26,10.0,Calm,Calm,-,N/A,,Clear,0,2012-12-10 05:55:00
11:55 PM,-4.0,-8.0,83,30.22,10.0,East,3.5,-,N/A,,Clear,80,2012-12-10 06:55:00